Year,Month,Day,Hour,Minute,Value (Times are PST for temperature in C)
2016,06,06,00,00,19.20
2016,06,06,00,07,18.90
2016,06,06,00,08,18.90
2016,06,06,00,09,18.90
2016,06,06,00,10,18.80
2016,06,06,00,11,18.80
2016,06,06,00,12,18.80
2016,06,06,00,13,18.80
2016,06,06,00,14,18.70
2016,06,06,00,15,18.70
2016,06,06,00,16,18.70
2016,06,06,00,17,18.60
2016,06,06,00,18,18.60
2016,06,06,00,19,18.60
2016,06,06,00,20,18.50
2016,06,06,00,21,18.50
2016,06,06,00,22,18.50
2016,06,06,00,23,18.50
2016,06,06,00,24,18.50
2016,06,06,00,25,18.60
2016,06,06,00,26,18.60
2016,06,06,00,27,18.60
2016,06,06,00,28,18.60
2016,06,06,00,29,18.60
2016,06,06,00,30,18.60
2016,06,06,00,31,18.50
2016,06,06,00,32,18.40
2016,06,06,00,33,18.40
2016,06,06,00,34,18.40
2016,06,06,00,35,18.40
2016,06,06,00,36,18.40
2016,06,06,00,37,18.40
2016,06,06,00,38,18.40
2016,06,06,00,39,18.40
2016,06,06,00,40,18.30
2016,06,06,00,41,18.30
2016,06,06,00,42,18.30
2016,06,06,00,43,18.30
2016,06,06,00,44,18.30
2016,06,06,00,45,18.30
2016,06,06,00,46,18.30
2016,06,06,00,47,18.30
2016,06,06,00,48,18.30
2016,06,06,00,49,18.30
2016,06,06,00,50,18.30
2016,06,06,00,51,18.20
2016,06,06,00,52,18.20
2016,06,06,00,53,18.20
2016,06,06,00,54,18.10
2016,06,06,00,55,18.10
2016,06,06,00,56,18.10
2016,06,06,00,57,18.10
2016,06,06,00,58,18.10
2016,06,06,00,59,18.10
2016,06,06,01,00,18.10
2016,06,06,01,01,18.10
2016,06,06,01,02,18.10
2016,06,06,01,03,18.00
2016,06,06,01,04,18.00
2016,06,06,01,05,18.00
2016,06,06,01,06,17.90
2016,06,06,01,07,17.90
2016,06,06,01,08,17.80
2016,06,06,01,09,17.80
2016,06,06,01,10,17.80
2016,06,06,01,11,17.70
2016,06,06,01,12,17.70
2016,06,06,01,13,17.70
2016,06,06,01,14,17.70
2016,06,06,01,15,17.70
2016,06,06,01,16,17.70
2016,06,06,01,17,17.70
2016,06,06,01,18,17.70
2016,06,06,01,19,17.60
2016,06,06,01,20,17.60
2016,06,06,01,21,17.60
2016,06,06,01,22,17.60
2016,06,06,01,23,17.60
2016,06,06,01,24,17.60
2016,06,06,01,25,17.60
2016,06,06,01,26,17.60
2016,06,06,01,27,17.60
2016,06,06,01,28,17.60
2016,06,06,01,29,17.60
2016,06,06,01,30,17.60
2016,06,06,01,31,17.60
2016,06,06,01,32,17.60
2016,06,06,01,33,17.60
2016,06,06,01,34,17.60
2016,06,06,01,35,17.60
2016,06,06,01,36,17.50
2016,06,06,01,37,17.50
2016,06,06,01,38,17.40
2016,06,06,01,39,17.40
2016,06,06,01,40,17.40
2016,06,06,01,41,17.40
2016,06,06,01,42,17.40
2016,06,06,01,43,17.40
2016,06,06,01,44,17.30
2016,06,06,01,45,17.30
2016,06,06,01,46,17.30
2016,06,06,01,47,17.30
2016,06,06,01,48,17.30
2016,06,06,01,49,17.30
2016,06,06,01,50,17.30
2016,06,06,01,51,17.20
2016,06,06,01,52,17.20
2016,06,06,01,53,17.20
2016,06,06,01,54,17.20
2016,06,06,01,55,17.20
2016,06,06,01,56,17.20
2016,06,06,01,57,17.10
2016,06,06,01,58,17.10
2016,06,06,01,59,17.00
2016,06,06,02,00,17.00
2016,06,06,02,01,17.00
2016,06,06,02,02,17.00
2016,06,06,02,03,17.00
2016,06,06,02,04,17.00
2016,06,06,02,05,16.90
2016,06,06,02,06,16.90
2016,06,06,02,07,16.90
2016,06,06,02,08,16.90
2016,06,06,02,09,16.90
2016,06,06,02,10,16.80
2016,06,06,02,11,16.80
2016,06,06,02,12,16.80
2016,06,06,02,13,16.80
2016,06,06,02,14,16.80
2016,06,06,02,15,16.80
2016,06,06,02,16,16.80
2016,06,06,02,17,16.80
2016,06,06,02,18,16.80
2016,06,06,02,19,16.80
2016,06,06,02,20,16.80
2016,06,06,02,21,16.80
2016,06,06,02,22,16.80
2016,06,06,02,23,16.80
2016,06,06,02,24,16.70
2016,06,06,02,25,16.70
2016,06,06,02,26,16.70
2016,06,06,02,27,16.70
2016,06,06,02,28,16.70
2016,06,06,02,29,16.70
2016,06,06,02,30,16.70
2016,06,06,02,31,16.70
2016,06,06,02,32,16.60
2016,06,06,02,33,16.60
2016,06,06,02,34,16.60
2016,06,06,02,35,16.60
2016,06,06,02,36,16.60
2016,06,06,02,37,16.70
2016,06,06,02,38,16.70
2016,06,06,02,39,16.70
2016,06,06,02,40,16.70
2016,06,06,02,41,16.70
2016,06,06,02,42,16.70
2016,06,06,02,43,16.60
2016,06,06,02,44,16.60
2016,06,06,02,45,16.60
2016,06,06,02,46,16.50
2016,06,06,02,47,16.50
2016,06,06,02,48,16.40
2016,06,06,02,49,16.40
2016,06,06,02,50,16.40
2016,06,06,02,51,16.40
2016,06,06,02,52,16.30
2016,06,06,02,53,16.30
2016,06,06,02,54,16.40
2016,06,06,02,55,16.50
2016,06,06,02,56,16.60
2016,06,06,02,57,16.60
2016,06,06,02,58,16.60
2016,06,06,02,59,16.60
2016,06,06,03,00,16.60
2016,06,06,03,01,16.60
2016,06,06,03,02,16.50
2016,06,06,03,03,16.50
2016,06,06,03,04,16.50
2016,06,06,03,05,16.50
2016,06,06,03,06,16.50
2016,06,06,03,07,16.50
2016,06,06,03,08,16.50
2016,06,06,03,09,16.50
2016,06,06,03,10,16.50
2016,06,06,03,11,16.50
2016,06,06,03,12,16.50
2016,06,06,03,13,16.50
2016,06,06,03,14,16.40
2016,06,06,03,15,16.40
2016,06,06,03,16,16.40
2016,06,06,03,17,16.40
2016,06,06,03,18,16.30
2016,06,06,03,19,16.30
2016,06,06,03,20,16.30
2016,06,06,03,21,16.30
2016,06,06,03,22,16.20
2016,06,06,03,23,16.20
2016,06,06,03,24,16.20
2016,06,06,03,25,16.20
2016,06,06,03,26,16.10
2016,06,06,03,27,16.10
2016,06,06,03,28,16.10
2016,06,06,03,29,16.10
2016,06,06,03,30,16.10
2016,06,06,03,31,16.20
2016,06,06,03,32,16.20
2016,06,06,03,33,16.20
2016,06,06,03,34,16.30
2016,06,06,03,35,16.30
2016,06,06,03,36,16.30
2016,06,06,03,37,16.30
2016,06,06,03,38,16.20
2016,06,06,03,39,16.20
2016,06,06,03,40,16.10
2016,06,06,03,41,16.10
2016,06,06,03,42,16.10
2016,06,06,03,43,16.00
2016,06,06,03,44,16.10
2016,06,06,03,45,16.10
2016,06,06,03,46,16.10
2016,06,06,03,47,16.00
2016,06,06,03,48,16.00
2016,06,06,03,49,15.90
2016,06,06,03,50,15.90
2016,06,06,03,51,15.90
2016,06,06,03,52,15.90
2016,06,06,03,53,15.90
2016,06,06,03,54,15.80
2016,06,06,03,55,15.80
2016,06,06,03,56,15.80
2016,06,06,03,57,15.80
2016,06,06,03,58,15.70
2016,06,06,03,59,15.70
2016,06,06,04,00,15.70
2016,06,06,04,01,15.70
2016,06,06,04,02,15.70
2016,06,06,04,03,15.70
2016,06,06,04,04,15.70
2016,06,06,04,05,15.70
2016,06,06,04,06,15.80
2016,06,06,04,07,15.80
2016,06,06,04,08,15.90
2016,06,06,04,09,16.00
2016,06,06,04,10,16.00
2016,06,06,04,11,16.10
2016,06,06,04,12,16.10
2016,06,06,04,13,16.10
2016,06,06,04,14,16.20
2016,06,06,04,15,16.20
2016,06,06,04,16,16.20
2016,06,06,04,17,16.10
2016,06,06,04,18,16.10
2016,06,06,04,19,16.00
2016,06,06,04,20,16.00
2016,06,06,04,21,16.00
2016,06,06,04,22,16.00
2016,06,06,04,23,16.00
2016,06,06,04,24,16.00
2016,06,06,04,25,16.10
2016,06,06,04,26,16.20
2016,06,06,04,27,16.30
2016,06,06,04,28,16.40
2016,06,06,04,29,16.30
2016,06,06,04,30,16.30
2016,06,06,04,31,16.30
2016,06,06,04,32,16.20
2016,06,06,04,33,16.20
2016,06,06,04,34,16.20
2016,06,06,04,35,16.10
2016,06,06,04,36,16.10
2016,06,06,04,37,16.10
2016,06,06,04,38,16.10
2016,06,06,04,39,16.10
2016,06,06,04,40,16.10
2016,06,06,04,41,16.10
2016,06,06,04,42,16.10
2016,06,06,04,43,16.10
2016,06,06,04,44,16.00
2016,06,06,04,45,16.00
2016,06,06,04,46,15.90
2016,06,06,04,47,15.80
2016,06,06,04,48,15.80
2016,06,06,04,49,15.70
2016,06,06,04,50,15.60
2016,06,06,04,51,15.50
2016,06,06,04,52,15.50
2016,06,06,04,53,15.40
2016,06,06,04,54,15.40
2016,06,06,04,55,15.40
2016,06,06,04,56,15.40
2016,06,06,04,57,15.40
2016,06,06,04,58,15.40
2016,06,06,04,59,15.50
2016,06,06,05,00,15.50
2016,06,06,05,01,15.50
2016,06,06,05,02,15.60
2016,06,06,05,03,15.60
2016,06,06,05,04,15.60
2016,06,06,05,05,15.60
2016,06,06,05,06,15.60
2016,06,06,05,07,15.70
2016,06,06,05,08,15.60
2016,06,06,05,09,15.60
2016,06,06,05,10,15.60
2016,06,06,05,11,15.60
2016,06,06,05,12,15.60
2016,06,06,05,13,15.60
2016,06,06,05,14,15.60
2016,06,06,05,15,15.50
2016,06,06,05,16,15.50
2016,06,06,05,17,15.50
2016,06,06,05,18,15.50
2016,06,06,05,19,15.50
2016,06,06,05,20,15.50
2016,06,06,05,21,15.50
2016,06,06,05,22,15.50
2016,06,06,05,23,15.40
2016,06,06,05,24,15.50
2016,06,06,05,25,15.50
2016,06,06,05,26,15.50
2016,06,06,05,27,15.50
2016,06,06,05,28,15.50
2016,06,06,05,29,15.60
2016,06,06,05,30,15.60
2016,06,06,05,31,15.50
2016,06,06,05,32,15.50
2016,06,06,05,33,15.60
2016,06,06,05,34,15.60
2016,06,06,05,35,15.70
2016,06,06,05,36,15.80
2016,06,06,05,37,15.80
2016,06,06,05,38,16.00
2016,06,06,05,39,16.10
2016,06,06,05,40,16.10
2016,06,06,05,41,16.10
2016,06,06,05,42,16.20
2016,06,06,05,43,16.20
2016,06,06,05,44,16.20
2016,06,06,05,45,16.20
2016,06,06,05,46,16.20
2016,06,06,05,47,16.20
2016,06,06,05,48,16.20
2016,06,06,05,49,16.20
2016,06,06,05,50,16.30
2016,06,06,05,51,16.30
2016,06,06,05,52,16.40
2016,06,06,05,53,16.50
2016,06,06,05,54,16.50
2016,06,06,05,55,16.60
2016,06,06,05,56,16.60
2016,06,06,05,57,16.70
2016,06,06,05,58,16.80
2016,06,06,05,59,16.80
2016,06,06,06,00,16.80
2016,06,06,06,01,16.90
2016,06,06,06,02,16.90
2016,06,06,06,03,17.00
2016,06,06,06,04,17.10
2016,06,06,06,05,17.10
2016,06,06,06,06,17.10
2016,06,06,06,07,17.10
2016,06,06,06,08,17.10
2016,06,06,06,09,17.10
2016,06,06,06,10,17.10
2016,06,06,06,11,17.10
2016,06,06,06,12,17.10
2016,06,06,06,13,17.10
2016,06,06,06,14,17.20
2016,06,06,06,15,17.20
2016,06,06,06,16,17.20
2016,06,06,06,17,17.20
2016,06,06,06,18,17.30
2016,06,06,06,19,17.30
2016,06,06,06,20,17.40
2016,06,06,06,21,17.40
2016,06,06,06,22,17.40
2016,06,06,06,23,17.50
2016,06,06,06,24,17.50
2016,06,06,06,25,17.50
2016,06,06,06,26,17.50
2016,06,06,06,27,17.50
2016,06,06,06,28,17.50
2016,06,06,06,29,17.60
2016,06,06,06,30,17.60
2016,06,06,06,31,17.60
2016,06,06,06,32,17.60
2016,06,06,06,33,17.60
2016,06,06,06,34,17.50
2016,06,06,06,35,17.50
2016,06,06,06,36,17.40
2016,06,06,06,37,17.40
2016,06,06,06,38,17.40
2016,06,06,06,39,17.40
2016,06,06,06,40,17.40
2016,06,06,06,41,17.40
2016,06,06,06,42,17.50
2016,06,06,06,43,17.50
2016,06,06,06,44,17.50
2016,06,06,06,45,17.50
2016,06,06,06,46,17.50
2016,06,06,06,47,17.50
2016,06,06,06,48,17.50
2016,06,06,06,49,17.50
2016,06,06,06,50,17.60
2016,06,06,06,51,17.60
2016,06,06,06,52,17.60
2016,06,06,06,53,17.60
2016,06,06,06,54,17.60
2016,06,06,06,55,17.50
2016,06,06,06,56,17.50
2016,06,06,06,57,17.50
2016,06,06,06,58,17.50
2016,06,06,06,59,17.50
2016,06,06,07,00,17.50
2016,06,06,07,01,17.60
2016,06,06,07,02,17.60
2016,06,06,07,03,17.60
2016,06,06,07,04,17.60
2016,06,06,07,05,17.60
2016,06,06,07,06,17.70
2016,06,06,07,07,17.70
2016,06,06,07,08,17.80
2016,06,06,07,09,17.80
2016,06,06,07,10,17.80
2016,06,06,07,11,17.90
2016,06,06,07,12,18.00
2016,06,06,07,13,18.00
2016,06,06,07,14,18.10
2016,06,06,07,15,18.20
2016,06,06,07,16,18.20
2016,06,06,07,17,18.30
2016,06,06,07,18,18.30
2016,06,06,07,19,18.40
2016,06,06,07,20,18.50
2016,06,06,07,21,18.70
2016,06,06,07,22,18.80
2016,06,06,07,23,18.80
2016,06,06,07,24,18.90
2016,06,06,07,25,18.90
2016,06,06,07,26,18.90
2016,06,06,07,27,18.90
2016,06,06,07,28,19.00
2016,06,06,07,29,19.10
2016,06,06,07,30,19.10
2016,06,06,07,31,19.10
2016,06,06,07,32,19.10
2016,06,06,07,33,19.10
2016,06,06,07,34,19.00
2016,06,06,07,35,19.00
2016,06,06,07,36,19.00
2016,06,06,07,37,19.10
2016,06,06,07,38,19.10
2016,06,06,07,39,19.10
2016,06,06,07,40,19.10
2016,06,06,07,41,19.20
2016,06,06,07,42,19.20
2016,06,06,07,43,19.20
2016,06,06,07,44,19.20
2016,06,06,07,45,19.20
2016,06,06,07,46,19.20
2016,06,06,07,47,19.20
2016,06,06,07,48,19.20
2016,06,06,07,49,19.20
2016,06,06,07,50,19.20
2016,06,06,07,51,19.20
2016,06,06,07,52,19.20
2016,06,06,07,53,19.30
2016,06,06,07,54,19.30
2016,06,06,07,55,19.30
2016,06,06,07,56,19.30
2016,06,06,07,57,19.30
2016,06,06,07,58,19.20
2016,06,06,07,59,19.20
2016,06,06,08,00,19.20
2016,06,06,08,01,19.20
2016,06,06,08,02,19.30
2016,06,06,08,03,19.30
2016,06,06,08,04,19.30
2016,06,06,08,05,19.30
2016,06,06,08,06,19.30
2016,06,06,08,07,19.30
2016,06,06,08,08,19.30
2016,06,06,08,09,19.30
2016,06,06,08,10,19.30
2016,06,06,08,11,19.30
2016,06,06,08,12,19.30
2016,06,06,08,13,19.30
2016,06,06,08,14,19.40
2016,06,06,08,15,19.40
2016,06,06,08,16,19.40
2016,06,06,08,17,19.40
2016,06,06,08,18,19.50
2016,06,06,08,19,19.50
2016,06,06,08,20,19.50
2016,06,06,08,21,19.60
2016,06,06,08,22,19.60
2016,06,06,08,23,19.60
2016,06,06,08,24,19.60
2016,06,06,08,25,19.60
2016,06,06,08,26,19.60
2016,06,06,08,27,19.60
2016,06,06,08,28,19.60
2016,06,06,08,29,19.60
2016,06,06,08,30,19.70
2016,06,06,08,31,19.70
2016,06,06,08,32,19.70
2016,06,06,08,33,19.80
2016,06,06,08,34,19.80
2016,06,06,08,35,19.80
2016,06,06,08,36,19.80
2016,06,06,08,37,19.70
2016,06,06,08,38,19.60
2016,06,06,08,39,19.50
2016,06,06,08,40,19.50
2016,06,06,08,41,19.50
2016,06,06,08,42,19.40
2016,06,06,08,43,19.40
2016,06,06,08,44,19.40
2016,06,06,08,45,19.30
2016,06,06,08,46,19.30
2016,06,06,08,47,19.30
2016,06,06,08,48,19.30
2016,06,06,08,49,19.30
2016,06,06,08,50,19.30
2016,06,06,08,51,19.30
2016,06,06,08,52,19.30
2016,06,06,08,53,19.30
2016,06,06,08,54,19.20
2016,06,06,08,55,19.20
2016,06,06,08,56,19.20
2016,06,06,08,57,19.20
2016,06,06,08,58,19.20
2016,06,06,08,59,19.20
2016,06,06,09,00,19.20
2016,06,06,09,01,19.20
2016,06,06,09,02,19.20
2016,06,06,09,03,19.10
2016,06,06,09,04,19.10
2016,06,06,09,05,19.20
2016,06,06,09,06,19.10
2016,06,06,09,07,19.10
2016,06,06,09,08,19.00
2016,06,06,09,09,19.00
2016,06,06,09,10,18.90
2016,06,06,09,11,18.90
2016,06,06,09,12,18.90
2016,06,06,09,13,18.90
2016,06,06,09,14,19.00
2016,06,06,09,15,19.10
2016,06,06,09,16,19.10
2016,06,06,09,17,19.10
2016,06,06,09,18,19.20
2016,06,06,09,19,19.20
2016,06,06,09,20,19.20
2016,06,06,09,21,19.20
2016,06,06,09,22,19.30
2016,06,06,09,23,19.30
2016,06,06,09,24,19.40
2016,06,06,09,25,19.50
2016,06,06,09,26,19.60
2016,06,06,09,27,19.60
2016,06,06,09,28,19.70
2016,06,06,09,29,19.70
2016,06,06,09,30,19.80
2016,06,06,09,31,19.80
2016,06,06,09,32,19.80
2016,06,06,09,33,19.80
2016,06,06,09,34,19.80
2016,06,06,09,35,19.90
2016,06,06,09,36,19.90
2016,06,06,09,37,19.90
2016,06,06,09,38,20.00
2016,06,06,09,39,20.00
2016,06,06,09,40,20.00
2016,06,06,09,41,20.10
2016,06,06,09,42,20.10
2016,06,06,09,43,20.20
2016,06,06,09,44,20.30
2016,06,06,09,45,20.30
2016,06,06,09,46,20.40
2016,06,06,09,47,20.50
2016,06,06,09,48,20.70
2016,06,06,09,49,20.80
2016,06,06,09,50,20.80
2016,06,06,09,51,20.90
2016,06,06,09,52,21.00
2016,06,06,09,53,21.10
2016,06,06,09,54,21.10
2016,06,06,09,55,21.20
2016,06,06,09,56,21.30
2016,06,06,09,57,21.40
2016,06,06,09,58,21.60
2016,06,06,09,59,21.70
2016,06,06,10,00,21.90
2016,06,06,10,01,22.00
2016,06,06,10,02,22.00
2016,06,06,10,03,22.00
2016,06,06,10,04,21.90
2016,06,06,10,05,21.90
2016,06,06,10,06,21.80
2016,06,06,10,07,21.80
2016,06,06,10,08,21.70
2016,06,06,10,09,21.70
2016,06,06,10,10,21.70
2016,06,06,10,11,21.70
2016,06,06,10,12,21.80
2016,06,06,10,13,21.80
2016,06,06,10,14,21.90
2016,06,06,10,15,21.90
2016,06,06,10,16,22.00
2016,06,06,10,17,22.00
2016,06,06,10,18,22.00
2016,06,06,10,19,21.90
2016,06,06,10,20,21.80
2016,06,06,10,21,21.70
2016,06,06,10,22,21.50
2016,06,06,10,23,21.50
2016,06,06,10,24,21.40
2016,06,06,10,25,21.40
2016,06,06,10,26,21.40
2016,06,06,10,27,21.60
2016,06,06,10,28,21.70
2016,06,06,10,29,21.80
2016,06,06,10,30,21.90
2016,06,06,10,31,21.90
2016,06,06,10,32,21.90
2016,06,06,10,33,21.90
2016,06,06,10,34,22.00
2016,06,06,10,35,22.00
2016,06,06,10,36,22.00
2016,06,06,10,37,22.10
2016,06,06,10,38,22.10
2016,06,06,10,39,22.20
2016,06,06,10,40,22.30
2016,06,06,10,41,22.30
2016,06,06,10,42,22.40
2016,06,06,10,43,22.40
2016,06,06,10,44,22.40
2016,06,06,10,45,22.50
2016,06,06,10,46,22.60
2016,06,06,10,47,22.60
2016,06,06,10,48,22.60
2016,06,06,10,49,22.60
2016,06,06,10,50,22.60
2016,06,06,10,51,22.70
2016,06,06,10,52,22.80
2016,06,06,10,53,22.80
2016,06,06,10,54,23.00
2016,06,06,10,55,23.00
2016,06,06,10,56,23.00
2016,06,06,10,57,22.90
2016,06,06,10,58,23.00
2016,06,06,10,59,23.00
2016,06,06,11,00,23.00
2016,06,06,11,01,23.00
2016,06,06,11,02,23.10
2016,06,06,11,03,23.20
2016,06,06,11,04,23.20
2016,06,06,11,05,23.20
2016,06,06,11,06,23.20
2016,06,06,11,07,23.20
2016,06,06,11,08,23.20
2016,06,06,11,09,23.20
2016,06,06,11,10,23.20
2016,06,06,11,11,23.20
2016,06,06,11,12,23.20
2016,06,06,11,13,23.20
2016,06,06,11,14,23.20
2016,06,06,11,15,23.20
2016,06,06,11,16,23.30
2016,06,06,11,17,23.30
2016,06,06,11,18,23.40
2016,06,06,11,19,23.40
2016,06,06,11,20,23.40
2016,06,06,11,21,23.40
2016,06,06,11,22,23.40
2016,06,06,11,23,23.30
2016,06,06,11,24,23.30
2016,06,06,11,25,23.30
2016,06,06,11,26,23.30
2016,06,06,11,27,23.30
2016,06,06,11,28,23.20
2016,06,06,11,29,23.20
2016,06,06,11,30,23.20
2016,06,06,11,31,23.30
2016,06,06,11,32,23.20
2016,06,06,11,33,23.20
2016,06,06,11,34,23.10
2016,06,06,11,35,23.00
2016,06,06,11,36,22.90
2016,06,06,11,37,23.00
2016,06,06,11,38,23.00
2016,06,06,11,39,23.10
2016,06,06,11,40,23.10
2016,06,06,11,41,23.20
2016,06,06,11,42,23.30
2016,06,06,11,43,23.30
2016,06,06,11,44,23.30
2016,06,06,11,45,23.40
2016,06,06,11,46,23.40
2016,06,06,11,47,23.40
2016,06,06,11,48,23.40
2016,06,06,11,49,23.50
2016,06,06,11,50,23.50
2016,06,06,11,51,23.60
2016,06,06,11,52,23.80
2016,06,06,11,53,23.80
2016,06,06,11,54,23.90
2016,06,06,11,55,24.00
2016,06,06,11,56,24.00
2016,06,06,11,57,24.00
2016,06,06,11,58,23.90
2016,06,06,11,59,23.90
2016,06,06,12,00,23.90
2016,06,06,12,01,23.90
2016,06,06,12,02,23.90
2016,06,06,12,03,23.90
2016,06,06,12,04,23.80
2016,06,06,12,05,23.80
2016,06,06,12,06,23.80
2016,06,06,12,07,23.80
2016,06,06,12,08,23.80
2016,06,06,12,09,23.80
2016,06,06,12,10,23.90
2016,06,06,12,11,23.90
2016,06,06,12,12,23.90
2016,06,06,12,13,23.90
2016,06,06,12,14,24.00
2016,06,06,12,15,24.00
2016,06,06,12,16,24.10
2016,06,06,12,17,24.20
2016,06,06,12,18,24.20
2016,06,06,12,19,24.30
2016,06,06,12,20,24.30
2016,06,06,12,21,24.30
2016,06,06,12,22,24.30
2016,06,06,12,23,24.40
2016,06,06,12,24,24.50
2016,06,06,12,25,24.60
2016,06,06,12,26,24.80
2016,06,06,12,27,24.80
2016,06,06,12,28,24.90
2016,06,06,12,29,24.90
2016,06,06,12,30,24.80
2016,06,06,12,31,24.80
2016,06,06,12,32,24.90
2016,06,06,12,33,24.90
2016,06,06,12,34,24.90
2016,06,06,12,35,24.90
2016,06,06,12,36,24.90
2016,06,06,12,37,25.00
2016,06,06,12,38,25.10
2016,06,06,12,39,25.20
2016,06,06,12,40,25.20
2016,06,06,12,41,25.30
2016,06,06,12,42,25.30
2016,06,06,12,43,25.30
2016,06,06,12,44,25.30
2016,06,06,12,45,25.20
2016,06,06,12,46,25.20
2016,06,06,12,47,25.30
2016,06,06,12,48,25.30
2016,06,06,12,49,25.30
2016,06,06,12,50,25.40
2016,06,06,12,51,25.40
2016,06,06,12,52,25.50
2016,06,06,12,53,25.50
2016,06,06,12,54,25.50
2016,06,06,12,55,25.50
2016,06,06,12,56,25.50
2016,06,06,12,57,25.60
2016,06,06,12,58,25.50
2016,06,06,12,59,25.50
2016,06,06,13,00,25.40
2016,06,06,13,01,25.40
2016,06,06,13,02,25.40
2016,06,06,13,03,25.40
2016,06,06,13,04,25.30
2016,06,06,13,05,25.30
2016,06,06,13,06,25.30
2016,06,06,13,07,25.20
2016,06,06,13,08,25.10
2016,06,06,13,09,25.00
2016,06,06,13,10,24.90
2016,06,06,13,11,24.90
2016,06,06,13,12,25.00
2016,06,06,13,13,25.10
2016,06,06,13,14,25.20
2016,06,06,13,15,25.20
2016,06,06,13,16,25.40
2016,06,06,13,17,25.50
2016,06,06,13,18,25.60
2016,06,06,13,19,25.80
2016,06,06,13,20,25.80
2016,06,06,13,21,25.80
2016,06,06,13,22,25.70
2016,06,06,13,23,25.70
2016,06,06,13,24,25.70
2016,06,06,13,25,25.70
2016,06,06,13,26,25.70
2016,06,06,13,27,25.60
2016,06,06,13,28,25.60
2016,06,06,13,29,25.60
2016,06,06,13,30,25.50
2016,06,06,13,31,25.40
2016,06,06,13,32,25.50
2016,06,06,13,33,25.60
2016,06,06,13,34,25.70
2016,06,06,13,35,25.80
2016,06,06,13,36,25.80
2016,06,06,13,37,25.70
2016,06,06,13,38,25.70
2016,06,06,13,39,25.60
2016,06,06,13,40,25.50
2016,06,06,13,41,25.30
2016,06,06,13,42,25.30
2016,06,06,13,43,25.20
2016,06,06,13,44,25.10
2016,06,06,13,45,25.20
2016,06,06,13,46,25.20
2016,06,06,13,47,25.20
2016,06,06,13,48,25.30
2016,06,06,13,49,25.30
2016,06,06,13,50,25.40
2016,06,06,13,51,25.50
2016,06,06,13,52,25.60
2016,06,06,13,53,25.60
2016,06,06,13,54,25.70
2016,06,06,13,55,25.80
2016,06,06,13,56,25.90
2016,06,06,13,57,25.80
2016,06,06,13,58,25.80
2016,06,06,13,59,25.70
2016,06,06,14,00,25.80
2016,06,06,14,01,25.80
2016,06,06,14,02,25.60
2016,06,06,14,03,25.60
2016,06,06,14,04,25.50
2016,06,06,14,05,25.50
2016,06,06,14,06,25.50
2016,06,06,14,07,25.60
2016,06,06,14,08,25.70
2016,06,06,14,09,25.70
2016,06,06,14,10,25.60
2016,06,06,14,11,25.50
2016,06,06,14,12,25.50
2016,06,06,14,13,25.50
2016,06,06,14,14,25.40
2016,06,06,14,15,25.40
2016,06,06,14,16,25.40
2016,06,06,14,17,25.40
2016,06,06,14,18,25.30
2016,06,06,14,19,25.30
2016,06,06,14,20,25.20
2016,06,06,14,21,25.00
2016,06,06,14,22,24.80
2016,06,06,14,23,24.70
2016,06,06,14,24,24.60
2016,06,06,14,25,24.40
2016,06,06,14,26,24.30
2016,06,06,14,27,24.30
2016,06,06,14,28,24.20
2016,06,06,14,29,24.30
2016,06,06,14,30,24.30
2016,06,06,14,31,24.40
2016,06,06,14,32,24.50
2016,06,06,14,33,24.60
2016,06,06,14,34,24.70
2016,06,06,14,35,24.70
2016,06,06,14,36,24.80
2016,06,06,14,37,24.90
2016,06,06,14,38,25.10
2016,06,06,14,39,25.20
2016,06,06,14,40,25.20
2016,06,06,14,41,25.20
2016,06,06,14,42,25.20
2016,06,06,14,43,25.20
2016,06,06,14,44,25.20
2016,06,06,14,45,25.20
2016,06,06,14,46,25.10
2016,06,06,14,47,24.90
2016,06,06,14,48,24.80
2016,06,06,14,49,24.70
2016,06,06,14,50,24.60
2016,06,06,14,51,24.50
2016,06,06,14,52,24.50
2016,06,06,14,53,24.70
2016,06,06,14,54,24.70
2016,06,06,14,55,24.80
2016,06,06,14,56,24.80
2016,06,06,14,57,24.90
2016,06,06,14,58,25.00
2016,06,06,14,59,25.10
2016,06,06,15,00,25.20
2016,06,06,15,01,25.40
2016,06,06,15,02,25.60
2016,06,06,15,03,25.60
2016,06,06,15,04,25.70
2016,06,06,15,05,25.70
2016,06,06,15,06,25.70
2016,06,06,15,07,25.70
2016,06,06,15,08,25.80
2016,06,06,15,09,25.90
2016,06,06,15,10,26.00
2016,06,06,15,11,26.10
2016,06,06,15,12,26.30
2016,06,06,15,13,26.30
2016,06,06,15,14,26.40
2016,06,06,15,15,26.40
2016,06,06,15,16,26.40
2016,06,06,15,17,26.30
2016,06,06,15,18,26.40
2016,06,06,15,19,26.50
2016,06,06,15,20,26.60
2016,06,06,15,21,26.60
2016,06,06,15,22,26.70
2016,06,06,15,23,26.70
2016,06,06,15,24,26.60
2016,06,06,15,25,26.50
2016,06,06,15,26,26.30
2016,06,06,15,27,26.30
2016,06,06,15,28,26.20
2016,06,06,15,29,26.10
2016,06,06,15,30,25.90
2016,06,06,15,31,25.90
2016,06,06,15,32,25.80
2016,06,06,15,33,25.80
2016,06,06,15,34,25.80
2016,06,06,15,35,25.80
2016,06,06,15,36,25.80
2016,06,06,15,37,25.70
2016,06,06,15,38,25.70
2016,06,06,15,39,25.60
2016,06,06,15,40,25.50
2016,06,06,15,41,25.50
2016,06,06,15,42,25.60
2016,06,06,15,43,25.60
2016,06,06,15,44,25.70
2016,06,06,15,45,25.70
2016,06,06,15,46,25.70
2016,06,06,15,47,25.70
2016,06,06,15,48,25.70
2016,06,06,15,49,25.60
2016,06,06,15,50,25.60
2016,06,06,15,51,25.70
2016,06,06,15,52,25.70
2016,06,06,15,53,25.70
2016,06,06,15,54,25.90
2016,06,06,15,55,26.00
2016,06,06,15,56,26.20
2016,06,06,15,57,26.40
2016,06,06,15,58,26.50
2016,06,06,15,59,26.60
2016,06,06,16,00,26.70
2016,06,06,16,01,26.70
2016,06,06,16,02,26.70
2016,06,06,16,03,26.60
2016,06,06,16,04,26.60
2016,06,06,16,05,26.60
2016,06,06,16,06,26.60
2016,06,06,16,07,26.60
2016,06,06,16,08,26.60
2016,06,06,16,09,26.60
2016,06,06,16,10,26.50
2016,06,06,16,11,26.40
2016,06,06,16,12,26.50
2016,06,06,16,13,26.60
2016,06,06,16,14,26.70
2016,06,06,16,15,26.80
2016,06,06,16,16,26.80
2016,06,06,16,17,26.80
2016,06,06,16,18,26.80
2016,06,06,16,19,26.80
2016,06,06,16,20,26.70
2016,06,06,16,21,26.60
2016,06,06,16,22,26.50
2016,06,06,16,23,26.40
2016,06,06,16,24,26.30
2016,06,06,16,25,26.20
2016,06,06,16,26,26.10
2016,06,06,16,27,26.00
2016,06,06,16,28,26.00
2016,06,06,16,29,25.90
2016,06,06,16,30,25.90
2016,06,06,16,31,25.80
2016,06,06,16,32,25.80
2016,06,06,16,33,25.70
2016,06,06,16,34,25.70
2016,06,06,16,35,25.70
2016,06,06,16,36,25.70
2016,06,06,16,37,25.70
2016,06,06,16,38,25.80
2016,06,06,16,39,25.80
2016,06,06,16,40,25.80
2016,06,06,16,41,25.90
2016,06,06,16,42,25.90
2016,06,06,16,43,26.00
2016,06,06,16,44,26.00
2016,06,06,16,45,26.10
2016,06,06,16,46,26.00
2016,06,06,16,47,25.90
2016,06,06,16,48,25.90
2016,06,06,16,49,25.90
2016,06,06,16,50,25.90
2016,06,06,16,51,25.90
2016,06,06,16,52,25.90
2016,06,06,16,53,25.90
2016,06,06,16,54,26.00
2016,06,06,16,55,26.00
2016,06,06,16,56,26.00
2016,06,06,16,57,26.10
2016,06,06,16,58,26.00
2016,06,06,16,59,26.00
2016,06,06,17,00,25.90
2016,06,06,17,01,25.90
2016,06,06,17,02,25.80
2016,06,06,17,03,25.70
2016,06,06,17,04,25.70
2016,06,06,17,05,25.70
2016,06,06,17,06,25.70
2016,06,06,17,07,25.70
2016,06,06,17,08,25.70
2016,06,06,17,09,25.60
2016,06,06,17,10,25.50
2016,06,06,17,11,25.50
2016,06,06,17,12,25.40
2016,06,06,17,13,25.40
2016,06,06,17,14,25.40
2016,06,06,17,15,25.30
2016,06,06,17,16,25.30
2016,06,06,17,17,25.30
2016,06,06,17,18,25.40
2016,06,06,17,19,25.40
2016,06,06,17,20,25.30
2016,06,06,17,21,25.30
2016,06,06,17,22,25.40
2016,06,06,17,23,25.40
2016,06,06,17,24,25.50
2016,06,06,17,25,25.50